Content
SEND FEEDBACK

Daily
Averages
Monthly
Summary
United States of America

TOKLAT, ALASKA


Home > North America > United States > Alaska
Elevation: 360 feet     Latitude: 64 33N     Longitude: 149 05W

WEATHER
 
SELECT A DAY
Number of Records: 186,582;   Date Range: 1/1/95 - 11/21/14
 
SHARE

PRINT THIS DATA

[ ← Previous Day ]
WEATHER ALMANAC - JANUARY 31, 2013
[ Next Day → ]
[ °C ]   °F
Weather ElementAverageHighLow
Temperature2.5 °F7 °F (7:53 pm)-0.4 °F (2:26 am)
Dewpoint-3 °F1.9 °F (8:53 pm)-6 °F (1:53 am)
Humidity77.9 %85 % (6:46 am)72 % (1:53 am)
Barometer29.90 in30.15 in (11:53 pm)29.75 in (2:26 am)
Wind Speed1.9 mph8.1 mph (1:53 am)
Weather ElementAverage
Visibility4.5 mi
Wind DirectionESE (111.9 °)

Weather ElementTotal
Precipitation0.25 in
Heating Degree Days61.7 (Base 65)
Averaged from 42 records on January 31, 2013
WEATHER CONDITIONS BREAKOUT
WIND DIRECTION BREAKOUT
WEATHER BY HOUR - JANUARY 31, 2013
[ °C ]   °F
Local TimeTemperatureDewpointHumidityBarometerVisibilityWind DirectionWind SpeedGust SpeedPrecipitationEventsConditions
1:53 AM1.0 °F-6.0 °F72 %29.79 in7.0 miNW (320°)8.1 mph0.00 inSnowLight Snow
2:26 AM-0.4 °F-5.8 °F78 %29.75 in2.5 miNW (320°)5.8 mph0.01 inSnowLight Snow
2:49 AM-0.4 °F-5.8 °F78 %29.75 in2.0 miNW (310°)4.6 mph0.01 inSnowLight Snow
3:15 AM-0.4 °F-5.8 °F78 %29.76 in2.0 miNW (310°)3.5 mph0.01 inSnowLight Snow
3:25 AM-0.4 °F-5.8 °F78 %29.76 in1.2 miCalm0.01 inSnowLight Snow
3:53 AM0.0 °F-5.1 °F79 %29.81 in1.2 miCalm0.03 inSnowLight Snow
4:25 AM-0.4 °F-5.8 °F78 %29.77 in2.0 miCalm0.01 inSnowLight Snow
4:32 AM-0.4 °F-5.8 °F78 %29.77 in1.8 miCalm0.01 inSnowLight Snow
4:42 AM1.4 °F-5.8 °F72 %29.77 in2.0 miCalm0.01 inSnowLight Snow
4:53 AM1.0 °F-5.1 °F75 %29.82 in1.5 miCalm0.01 inSnowLight Snow
5:53 AM1.0 °F-4.0 °F79 %29.83 in1.0 miCalm0.03 inSnowLight Snow
6:04 AM1.4 °F-4.0 °F78 %29.79 in2.0 miCalm0.00 inSnowLight Snow
6:13 AM1.4 °F-4.0 °F78 %29.79 in4.0 miCalm0.00 inSnowLight Snow
6:46 AM1.4 °F-2.2 °F85 %29.79 in2.5 miCalm0.01 inSnowLight Snow
6:53 AM1.9 °F-2.9 °F80 %29.83 in1.8 miCalm0.01 inSnowLight Snow
7:00 AM1.4 °F-2.2 °F85 %29.79 in2.0 miCalm0.00 inSnowLight Snow
7:12 AM1.4 °F-2.2 °F85 %29.79 in1.2 miCalm0.01 inSnowLight Snow
7:53 AM3.0 °F-2.0 °F80 %29.86 in1.0 miCalm0.02 inSnowLight Snow
8:53 AM1.0 °F-4.0 °F79 %29.87 in1.2 miNW (320°)5.8 mph0.02 inSnowLight Snow
9:22 AM1.4 °F-4.0 °F78 %29.85 in2.5 miWNW (290°)3.5 mph0.01 inSnowLight Snow
9:43 AM1.4 °F-4.0 °F78 %29.85 in1.5 miWNW (300°)3.5 mph0.01 inSnowLight Snow
9:53 AM1.0 °F-4.0 °F79 %29.90 in2.0 miWNW (290°)3.5 mph0.01 inSnowLight Snow
10:10 AM1.4 °F-4.0 °F78 %29.86 in3.0 miWNW (290°)3.5 mph0.00 inSnowLight Snow
10:37 AM1.4 °F-2.2 °F85 %29.87 in1.8 miCalm0.00 inSnowLight Snow
10:53 AM1.9 °F-4.0 °F76 %29.92 in3.0 miWNW (290°)3.5 mph0.01 inSnowLight Snow
11:53 AM3.0 °F-2.9 °F76 %29.95 in9.0 miVariable3.5 mph0.00 inOvercast
12:37 PM3.2 °F-2.2 °F78 %29.93 in1.8 miCalm0.00 inSnowLight Snow
12:53 PM3.0 °F-2.9 °F76 %29.98 in1.5 miWest (280°)3.5 mph0.00 inSnowLight Snow
1:03 PM3.2 °F-2.2 °F78 %29.94 in2.5 miCalm0.00 inSnowLight Snow
1:13 PM3.2 °F-2.2 °F78 %29.94 in6.0 miWest (280°)3.5 mph0.00 inHaze
1:36 PM3.2 °F-2.2 °F78 %29.94 in10.0 miWNW (290°)3.5 mph0.00 inOvercast
1:53 PM3.9 °F-2.9 °F73 %29.99 in10.0 miVariable3.5 mph0.00 inOvercast
2:53 PM3.9 °F-2.0 °F76 %30.00 in10.0 miNW (320°)3.5 mphOvercast
3:53 PM5.0 °F-2.0 °F73 %30.03 in10.0 miNNW (330°)3.5 mphOvercast
4:53 PM5.0 °F-0.9 °F76 %30.04 in9.0 miCalm0.00 inOvercast
5:53 PM6.1 °F-0.9 °F73 %30.06 in8.0 miCalm0.00 inOvercast
6:53 PM6.1 °F0.0 °F76 %30.08 in10.0 miCalm0.00 inOvercast
7:53 PM7.0 °F0.0 °F73 %30.09 in10.0 miCalmOvercast
8:53 PM6.1 °F1.9 °F83 %30.10 in10.0 miCalmOvercast
9:53 PM6.1 °F1.0 °F80 %30.12 in10.0 miCalmOvercast
10:53 PM7.0 °F1.0 °F77 %30.13 in9.0 miENE (70°)4.6 mphOvercast
11:53 PM7.0 °F1.0 °F77 %30.15 in10.0 miEast (90°)3.5 mphOvercast
Hourly data recorded from PANN, located miles away from Toklat, Alaska







STORIES FROM OUR PARTNERS